Home   Weather   Exeter   Past weeks

Flag for United Kingdom Past Weather in Exeter, England, United Kingdom — Yesterday and Last 2 Weeks

Now
52 °F

Partly sunny.


Feels Like: 52 °F
Forecast: 42 / 53 °F
Wind: 2 mph from North

Location: Exeter Airport

Current Time: Dec 6, 2016 at 10:27:07 am

Latest Report: Dec 6, 2016 at 9:50 am


Visibility: 4 mi

Pressure: 30.27 "Hg

Humidity: 94%

Dew Point: 50 °F

Location of ExeterLocation

Past Weather in Exeter — Graph

°F

Exeter Temperature Yesterday

Maximum temperature yesterday: 52 °F (at 2:20 pm)
Minimum temperature yesterday: 41 °F (at 6:20 am)
Average temperature yesterday: 47 °F

High & Low Weather Summary for the Past Weeks

 TemperatureHumidityPressure
High52 °F (Dec 5, 2:20 pm)100% (Nov 21, 10:20 am)30.60 "Hg (Nov 21, 10:20 am)
Low23 °F (Nov 30, 1:50 am)53% (Nov 28, 3:50 pm)28.97 "Hg (Nov 21, 11:50 am)
Average41 °F86%30.14 "Hg
* Reported Nov 21 9:20 am — Dec 6 9:20 am, Exeter, Weather by CustomWeather, © 2016

Note: Actual official high and low records may vary slightly from our data, if they occured in-between our weather recording intervals... More about our weather records

Advertising

Exeter Weather History for the Previous 24 Hours

Scroll right to see more
 ConditionsComfort  
Time TempWeatherWind HumidityBarometerVisibility
9:20 am
Tue, Dec 6
52 °FPartly sunny.3 mph94%30.27 "Hg4 mi
8:50 am52 °FPartly sunny.5 mph94%30.27 "Hg4 mi
8:20 am50 °FPartly sunny.6 mph94%30.27 "Hg4 mi
7:50 am50 °FPassing clouds.No wind94%30.27 "Hg4 mi
7:20 am50 °FPassing clouds.3 mph94%30.27 "HgN/A
6:50 am50 °FPassing clouds.3 mph94%30.27 "HgN/A
6:20 am50 °FPassing clouds.3 mph94%30.27 "HgN/A
11:20 pm
Mon, Dec 5
52 °FPassing clouds.No wind94%30.21 "HgN/A
10:50 pm52 °FPassing clouds.7 mph94%30.21 "HgN/A
10:20 pm52 °FPassing clouds.7 mph94%30.21 "HgN/A
9:50 pm52 °FPassing clouds.No wind88%30.21 "Hg4 mi
9:20 pm50 °FPassing clouds.8 mph94%30.21 "Hg4 mi
8:50 pm50 °FPassing clouds.No wind94%30.21 "Hg4 mi
8:20 pm50 °FPassing clouds.9 mph94%30.21 "Hg4 mi
7:50 pm50 °FPassing clouds.6 mph94%30.21 "Hg4 mi
7:20 pm46 °FPassing clouds.3 mph93%30.18 "Hg4 mi
6:50 pm46 °FPassing clouds.2 mph93%30.18 "Hg4 mi
6:20 pm46 °FPassing clouds.6 mph93%30.18 "Hg4 mi
5:50 pm46 °FPassing clouds.2 mph93%30.18 "Hg4 mi
5:20 pm48 °FPassing clouds.5 mph94%30.18 "Hg4 mi
4:50 pm50 °FPassing clouds.5 mph94%30.18 "Hg4 mi
4:20 pm50 °FPassing clouds.7 mph94%30.18 "Hg4 mi
3:50 pm50 °FScattered clouds.No wind94%30.15 "Hg4 mi
3:20 pm50 °FPassing clouds.No wind94%30.15 "Hg5 mi
2:50 pm52 °FPartly sunny.5 mph88%30.15 "Hg4 mi
2:20 pm52 °FPartly sunny.5 mph88%30.15 "Hg3 mi
1:50 pm50 °FPartly sunny.6 mph88%30.15 "Hg3 mi
1:20 pm50 °FPartly sunny.3 mph88%30.15 "Hg4 mi
12:50 pm48 °FPartly sunny.7 mph94%30.15 "Hg3 mi
12:20 pm46 °FPartly sunny.3 mph93%30.18 "Hg3 mi
11:50 am46 °FPartly sunny.5 mph93%30.18 "Hg3 mi
11:20 am46 °FPartly sunny.No wind87%30.15 "Hg3 mi
10:50 am46 °FPartly sunny.3 mph93%30.18 "Hg3 mi
10:20 am45 °FPartly sunny.7 mph93%30.15 "Hg3 mi
Weather by CustomWeather, © 2016

See weather overviewHow to use our weather pages